Location: Gu�tanj
(46.5431°N, 14.9692°E)
Time: 13:27:55
(UTC+00:00)

SJ-6B - Pass Details

Date: 03 March 2021
Orbit: 509 x 581 km, 97.6° (Epoch: 19 April)

Event Time Altitude Azimuth Distance (km) Brightness Sun altitude
Exits shadow 17:46:12 14° 106° (ESE) 1,641 4.6 -10.6°
Maximum altitude 17:48:29 21° 65° (ENE) 1,299 4.2 -11.0°
Drops below altitude 10° 17:51:35 10° 16° (NNE) 1,877 5.4 -11.5°
Sets 17:54:05 0° 0° (N) 2,767 6.4 -12.0°
